This is the latest recevied weather packets stored in our database for station/object KN6KS. If no packets are shown the sender has not sent any weather packets the latest 10 day(s).
| Time | Temp. | Humidity | Pressure | Rain* | Wind** | Luminosity | Snow |
|---|---|---|---|---|---|---|---|
| 1777755024 | 28.33° C | 21% | 1011.8 hPa | 0 mm | - | 721 W/m² | - |
| 1777754721 | 27.78° C | 20% | 1011.8 hPa | 0 mm | - | 718 W/m² | - |
| 1777754419 | 27.78° C | 21% | 1011.9 hPa | 0 mm | - | 684 W/m² | - |
| 1777754115 | 27.78° C | 20% | 1012 hPa | 0 mm | - | 693 W/m² | - |
| 1777753812 | 27.78° C | 21% | 1012.2 hPa | 0 mm | - | 789 W/m² | - |
| 1777753508 | 27.78° C | 20% | 1012.2 hPa | 0 mm | - | 700 W/m² | - |
| 1777753207 | 28.33° C | 20% | 1011.9 hPa | 0 mm | - | 542 W/m² | - |
| 1777752903 | 28.33° C | 19% | 1012 hPa | 0 mm | - | 704 W/m² | - |
| 1777752599 | 28.33° C | 19% | 1012.5 hPa | 0 mm | - | 512 W/m² | - |
| 1777752295 | 28.33° C | 19% | 1012.1 hPa | 0 mm | - | 746 W/m² | - |
| 1777751993 | 27.78° C | 19% | 1012.2 hPa | 0 mm | - | 753 W/m² | - |
| 1777751690 | 27.78° C | 19% | 1012.2 hPa | 0 mm | - | 766 W/m² | - |
| 1777751386 | 27.22° C | 19% | 1012.5 hPa | 0 mm | - | 638 W/m² | - |
| 1777751083 | 27.78° C | 18% | 1012.6 hPa | 0 mm | - | 541 W/m² | - |
| 1777750779 | 28.33° C | 19% | 1012.6 hPa | 0 mm | - | 668 W/m² | - |
| 1777750476 | 28.33° C | 20% | 1012.6 hPa | 0 mm | - | 695 W/m² | - |
| 1777750172 | 29.44° C | 18% | 1012.9 hPa | 0 mm | - | 679 W/m² | - |
| 1777749869 | 27.22° C | 19% | 1012.8 hPa | 0 mm | - | 652 W/m² | - |
| 1777749566 | 27.22° C | 20% | 1013 hPa | 0 mm | - | 714 W/m² | - |
| 1777749263 | 27.78° C | 20% | 1013.2 hPa | 0 mm | - | 624 W/m² | - |
| 1777748961 | 26.67° C | 21% | 1013.1 hPa | 0 mm | - | 690 W/m² | - |
| 1777748658 | 27.22° C | 20% | 1013.2 hPa | 0 mm | - | 677 W/m² | - |
| 1777748354 | 27.22° C | 21% | 1013.2 hPa | 0 mm | - | 655 W/m² | - |
| 1777748050 | 27.78° C | 21% | 1013.3 hPa | 0 mm | - | 632 W/m² | - |
| 1777747747 | 27.22° C | 21% | 1013.1 hPa | 0 mm | - | 648 W/m² | - |
* Rain latest hour (hover to see other rain measurements)
** Current wind speed in m/s (hover to see current wind gust speed)